Location: Haliburton Scout Reserve
(45.0900°N, 78.3200°W)
Time: 01:33:06
(UTC-04:00)

NANOSAT C BR1 - Pass Details

Date: 20 May 2022
Orbit: 583 x 601 km, 98.0° (Epoch: 27 June)

Event Time Altitude Azimuth Distance (km) Brightness Sun altitude
Rises 02:14:31 0° 30° (NNE) 2,821 ? -23.3°
Reaches altitude 10° 02:17:21 10° 50° (NE) 1,913 ? -23.1°
Maximum altitude 02:20:05 17° 92° (E) 1,504 ? -23.0°
Enters shadow 02:21:18 15° 113° (ESE) 1,589 ? -22.9°
